Weather History for KCKB - October, 2013

Change the Weather History Date:

Friday, October 11, 2013

  Actual Average Record
Temperature  
Mean Temperature 56 °F -  
Max Temperature 60 °F 66 °F 88 °F (1949)
Min Temperature 53 °F 42 °F 21 °F (1964)
Degree Days  
Heating Degree Days 9    
Growing Degree Days 6 (Base 50)    
Moisture  
Dew Point 53 °F    
Average Humidity 86    
Maximum Humidity 94    
Minimum Humidity 77    
Precipitation  
Precipitation 0.00 in - - ()
Sea Level Pressure  
Sea Level Pressure 30.05 in    
Wind  
Wind Speed 7 mph (NNE)    
Max Wind Speed 10 mph    
Max Gust Speed -    
Visibility 9 miles    
Events Rain    
Averages and records for this station are not official NWS values.
T = Trace of Precipitation, MM = Missing Value Source: NWS Daily Summary

Daily Weather History Graph

Daily Weather History Graph

Search for Another Location

Airport or City:

Trip Planner

Search our weather history database for the weather conditions in past years. The results will help you decide how hot, cold, wet, or windy it might be!

Date:

Astronomy

Oct. 11, 2013 Rise Set
Actual Time 7:26 AM EDT 6:47 PM EDT
Civil Twilight 7:00 AM EDT 7:14 PM EDT
Nautical Twilight 6:28 AM EDT 7:45 PM EDT
Astronomical Twilight 5:57 AM EDT 8:16 PM EDT
Moon 2:06 PM EDT (10/11) No Moon Set
Length of Visible Light 12h 14m
Length of Day
11h 20m
Waxing Crescent, 47% of the Moon is Illuminated
Oct 11
Waxing Crescent
Oct 11
First Quarter
Oct 18
Full
Oct 26
Last Quarter
Nov 3
New

Hourly Weather History & Observations

Time (EDT) Temp. Dew Point Humidity Pressure Visibility Wind Dir Wind Speed Gust Speed Precip Events Conditions
12:53 AM 57.0 °F 53.1 °F 87% 30.03 in 10.0 mi NNE 5.8 mph - N/A   Overcast
1:53 AM 57.0 °F 52.0 °F 83% 30.03 in 10.0 mi NNE 6.9 mph - N/A   Overcast
2:53 AM 57.0 °F 52.0 °F 83% 30.02 in 10.0 mi North 5.8 mph - N/A   Overcast
3:23 AM 57.2 °F 51.8 °F 82% 30.04 in 10.0 mi NNE 5.8 mph - N/A   Overcast
3:32 AM 57.2 °F 51.8 °F 82% 30.04 in 10.0 mi NNE 5.8 mph - N/A   Overcast
3:53 AM 55.9 °F 52.0 °F 87% 30.01 in 10.0 mi NNE 8.1 mph - N/A   Overcast
4:53 AM 54.0 °F 52.0 °F 93% 30.02 in 10.0 mi NNE 4.6 mph - N/A   Overcast
5:11 AM 53.6 °F 51.8 °F 94% 30.05 in 10.0 mi North 5.8 mph - N/A   Overcast
5:53 AM 54.0 °F 51.1 °F 90% 30.03 in 10.0 mi North 6.9 mph - 0.00 in   Overcast
6:00 AM 53.6 °F 51.8 °F 94% 30.05 in 10.0 mi NNE 5.8 mph - N/A   Overcast
6:53 AM 54.0 °F 51.1 °F 90% 30.04 in 10.0 mi NNE 5.8 mph - N/A   Overcast
7:26 AM 53.6 °F 51.8 °F 94% 30.06 in 10.0 mi NNE 6.9 mph - N/A   Overcast
7:45 AM 53.6 °F 51.8 °F 94% 30.06 in 10.0 mi NNE 4.6 mph - N/A   Overcast
7:53 AM 54.0 °F 51.1 °F 90% 30.04 in 10.0 mi NNE 6.9 mph - N/A   Overcast
8:53 AM 55.9 °F 52.0 °F 87% 30.05 in 8.0 mi NNE 9.2 mph - 0.00 in Rain Light Rain
9:53 AM 55.9 °F 52.0 °F 87% 30.06 in 10.0 mi NNE 5.8 mph - 0.00 in   Overcast
10:53 AM 57.9 °F 53.1 °F 84% 30.06 in 7.0 mi NNE 8.1 mph - N/A   Overcast
11:53 AM 57.9 °F 52.0 °F 81% 30.06 in 10.0 mi NNE 6.9 mph - N/A   Overcast
12:00 PM 57.2 °F 51.8 °F 82% 30.08 in 10.0 mi North 9.2 mph - N/A   Overcast
12:37 PM 57.2 °F 51.8 °F 82% 30.07 in 10.0 mi North 8.1 mph - N/A   Overcast
12:53 PM 57.9 °F 52.0 °F 81% 30.06 in 10.0 mi NNE 10.4 mph - N/A   Overcast
1:05 PM 59.0 °F 51.8 °F 77% 30.07 in 10.0 mi NNE 9.2 mph - N/A   Overcast
1:53 PM 59.0 °F 53.1 °F 81% 30.04 in 10.0 mi North 8.1 mph - N/A   Overcast
2:00 PM 59.0 °F 51.8 °F 77% 30.06 in 10.0 mi North 9.2 mph - N/A   Overcast
2:07 PM 59.0 °F 51.8 °F 77% 30.06 in 10.0 mi NNE 9.2 mph - N/A   Overcast
2:53 PM 57.9 °F 54.0 °F 87% 30.03 in 5.0 mi NNE 6.9 mph - 0.00 in Rain Light Rain
3:00 PM 57.2 °F 53.6 °F 88% 30.05 in 5.0 mi North 9.2 mph - 0.00 in Rain Light Rain
3:53 PM 59.0 °F 53.1 °F 81% 30.03 in 10.0 mi North 8.1 mph - 0.00 in   Overcast
4:53 PM 57.9 °F 53.1 °F 84% 30.04 in 10.0 mi North 6.9 mph - N/A   Overcast
5:02 PM 57.2 °F 53.6 °F 88% 30.06 in 9.0 mi North 8.1 mph - N/A   Overcast
5:53 PM 57.9 °F 54.0 °F 87% 30.05 in 10.0 mi NNE 6.9 mph - N/A   Overcast
6:00 PM 57.2 °F 53.6 °F 88% 30.07 in 10.0 mi NNE 6.9 mph - N/A   Overcast
6:53 PM 57.9 °F 54.0 °F 87% 30.06 in 10.0 mi NNE 3.5 mph - N/A   Overcast
7:53 PM 57.0 °F 54.0 °F 89% 30.06 in 10.0 mi NNE 3.5 mph - N/A   Overcast
8:53 PM 57.9 °F 55.0 °F 90% 30.05 in 10.0 mi NNE 4.6 mph - N/A   Overcast
9:53 PM 57.9 °F 54.0 °F 87% 30.06 in 10.0 mi NNE 8.1 mph - N/A   Overcast
10:53 PM 57.0 °F 54.0 °F 89% 30.06 in 10.0 mi North 3.5 mph - N/A   Overcast
11:07 PM 57.2 °F 53.6 °F 88% 30.07 in 9.0 mi NNE 5.8 mph - N/A   Overcast
11:50 PM 55.4 °F 53.6 °F 94% 30.07 in 7.0 mi NE 3.5 mph - N/A   Overcast
11:53 PM 57.0 °F 54.0 °F 89% 30.05 in 7.0 mi NNE 6.9 mph - N/A   Overcast